| time (UTC) | temp F | wind direction | speed MPH | gust MPH | rain 1hr in | rain 24hr in | rain mn in | humidity % | barometer mb |
| 20260903075619 | 74 | 23 | 0.0 | 2.0 | 0.00 | 0.00 | 0.00 | 89 | 1036.7 |
| 20260903075114 | 75 | 346 | 1.0 | 2.0 | 0.00 | 0.00 | 0.00 | 87 | 1036.7 |
| 20260903074614 | 75 | 0 | 0.0 | 0.0 | 0.00 | 0.00 | 0.00 | 86 | 1036.6 |
| 20260903074108 | 74 | 7 | 1.0 | 2.0 | 0.00 | 0.00 | 0.00 | 89 | 1036.6 |
| 20260903073603 | 74 | 0 | 2.0 | 2.0 | 0.00 | 0.00 | 0.00 | 91 | 1036.5 |
| 20260903073059 | 73 | 353 | 1.0 | 2.0 | 0.00 | 0.00 | 0.00 | 91 | 1036.4 |
| 20260903072555 | 74 | 340 | 1.0 | 2.0 | 0.00 | 0.00 | 0.00 | 90 | 1036.6 |
| 20260903072051 | 75 | 0 | 2.0 | 2.0 | 0.00 | 0.00 | 0.00 | 88 | 1036.6 |
| 20260903071547 | 75 | 0 | 0.0 | 0.0 | 0.00 | 0.00 | 0.00 | 88 | 1036.4 |
| 20260903071047 | 75 | 0 | 0.0 | 2.0 | 0.00 | 0.00 | 0.00 | 86 | 1036.5 |
| 20260903070542 | 75 | 0 | 0.0 | 0.0 | 0.00 | 0.00 | 0.00 | 88 | 1036.4 |
| 20260903070038 | 75 | 174 | 0.0 | 1.0 | 0.00 | 0.00 | 0.00 | 88 | 1036.4 |
| 20260903065537 | 75 | 157 | 0.0 | 1.0 | 0.00 | 0.00 | 0.00 | 87 | 1036.6 |
| 20260903065036 | 76 | 180 | 0.0 | 0.0 | 0.00 | 0.00 | 0.00 | 85 | 1036.3 |
| 20260903064531 | 76 | 337 | 0.0 | 0.0 | 0.00 | 0.00 | 0.00 | 83 | 1036.5 |
| 20260903064027 | 75 | 352 | 0.0 | 2.0 | 0.00 | 0.00 | 0.00 | 86 | 1036.4 |
| 20260903063522 | 75 | 352 | 0.0 | 2.0 | 0.00 | 0.00 | 0.00 | 87 | 1036.5 |
| 20260903063017 | 75 | 334 | 1.0 | 2.0 | 0.00 | 0.00 | 0.00 | 87 | 1036.4 |
| 20260903062512 | 77 | 0 | 3.0 | 3.0 | 0.00 | 0.00 | 0.00 | 84 | 1036.6 |
| 20260903062008 | 77 | 346 | 1.0 | 2.0 | 0.00 | 0.00 | 0.00 | 81 | 1036.7 |
| 20260903061503 | 76 | 355 | 0.0 | 1.0 | 0.00 | 0.00 | 0.00 | 84 | 1036.5 |
| 20260903060958 | 77 | 346 | 1.0 | 1.0 | 0.00 | 0.00 | 0.00 | 83 | 1036.6 |
| 20260903060458 | 77 | 340 | 0.0 | 2.0 | 0.00 | 0.00 | 0.00 | 82 | 1036.7 |
| 20260903055957 | 77 | 341 | 2.0 | 2.0 | 0.00 | 0.00 | 0.00 | 82 | 1036.8 |
| 20260903055455 | 78 | 348 | 1.0 | 2.0 | 0.00 | 0.00 | 0.00 | 80 | 1036.6 |
| 20260903054954 | 78 | 345 | 2.0 | 2.0 | 0.00 | 0.00 | 0.00 | 79 | 1036.8 |
| 20260903054449 | 78 | 0 | 0.0 | 0.0 | 0.00 | 0.00 | 0.00 | 78 | 1036.5 |
| 20260903053945 | 78 | 0 | 0.0 | 1.0 | 0.00 | 0.00 | 0.00 | 78 | 1036.6 |
| 20260903053445 | 78 | 341 | 2.0 | 2.0 | 0.00 | 0.00 | 0.00 | 80 | 1036.6 |
| 20260903052942 | 78 | 353 | 1.0 | 2.0 | 0.00 | 0.00 | 0.00 | 79 | 1036.7 |
| 20260903052437 | 76 | 346 | 2.0 | 2.0 | 0.00 | 0.00 | 0.00 | 84 | 1036.8 |
| 20260903051933 | 76 | 352 | 2.0 | 2.0 | 0.00 | 0.00 | 0.00 | 87 | 1036.8 |
| 20260903051428 | 76 | 340 | 1.0 | 2.0 | 0.00 | 0.00 | 0.00 | 86 | 1037.0 |
| 20260903050924 | 77 | 342 | 1.0 | 2.0 | 0.00 | 0.00 | 0.00 | 85 | 1036.7 |
| 20260903050422 | 78 | 355 | 2.0 | 2.0 | 0.00 | 0.00 | 0.00 | 80 | 1037.2 |
| 20260903045917 | 78 | 145 | 0.0 | 0.0 | 0.00 | 0.00 | 0.00 | 79 | 1037.0 |
| 20260903045412 | 79 | 160 | 0.0 | 0.0 | 0.00 | 0.00 | 0.00 | 78 | 1037.0 |
| 20260903044909 | 78 | 160 | 0.0 | 0.0 | 0.00 | 0.00 | 0.00 | 77 | 1037.1 |
| 20260903044409 | 79 | 160 | 0.0 | 1.0 | 0.00 | 0.00 | 0.00 | 78 | 1036.8 |
| 20260903043906 | 80 | 5 | 0.0 | 0.0 | 0.00 | 0.00 | 0.00 | 75 | 1036.6 |
| 20260903043401 | 81 | 8 | 0.0 | 0.0 | 0.00 | 0.00 | 0.00 | 71 | 1036.7 |
| 20260903042859 | 81 | 81 | 0.0 | 0.0 | 0.00 | 0.00 | 0.00 | 71 | 1036.6 |
| 20260903042354 | 81 | 81 | 0.0 | 0.0 | 0.00 | 0.00 | 0.00 | 71 | 1036.8 |
| 20260903041850 | 81 | 81 | 0.0 | 0.0 | 0.00 | 0.00 | 0.00 | 71 | 1036.8 |
| 20260903041347 | 82 | 294 | 0.0 | 0.0 | 0.00 | 0.00 | 0.00 | 69 | 1036.9 |
| 20260903040842 | 81 | 352 | 0.0 | 1.0 | 0.00 | 0.00 | 0.00 | 71 | 1036.8 |
| 20260903040341 | 81 | 345 | 0.0 | 0.0 | 0.00 | 0.00 | 0.00 | 71 | 1036.9 |
| 20260903035838 | 80 | 348 | 0.0 | 2.0 | 0.00 | 0.00 | 0.00 | 74 | 1036.7 |
| 20260903035332 | 80 | 337 | 0.0 | 1.0 | 0.00 | 0.00 | 0.00 | 75 | 1036.6 |
| 20260903034827 | 80 | 0 | 0.0 | 2.0 | 0.00 | 0.00 | 0.00 | 75 | 1036.8 |
| 20260903034323 | 81 | 353 | 0.0 | 1.0 | 0.00 | 0.00 | 0.00 | 75 | 1037.0 |
| 20260903033818 | 81 | 345 | 0.0 | 0.0 | 0.00 | 0.00 | 0.00 | 74 | 1036.8 |
| 20260903033313 | 81 | 345 | 0.0 | 0.0 | 0.00 | 0.00 | 0.00 | 73 | 1036.7 |
| 20260903032807 | 81 | 345 | 0.0 | 0.0 | 0.00 | 0.00 | 0.00 | 74 | 1036.9 |
| 20260903032305 | 82 | 345 | 0.0 | 0.0 | 0.00 | 0.00 | 0.00 | 73 | 1036.8 |
| 20260903031758 | 82 | 344 | 0.0 | 2.0 | 0.00 | 0.00 | 0.00 | 73 | 1037.0 |
| 20260903031257 | 82 | 334 | 0.0 | 2.0 | 0.00 | 0.00 | 0.00 | 74 | 1036.9 |
| 20260903030754 | 81 | 331 | 0.0 | 1.0 | 0.00 | 0.00 | 0.00 | 74 | 1037.0 |
| 20260903030249 | 81 | 340 | 0.0 | 1.0 | 0.00 | 0.00 | 0.00 | 75 | 1036.8 |
| 20260903025744 | 81 | 337 | 0.0 | 0.0 | 0.00 | 0.00 | 0.00 | 76 | 1037.1 |
| 20260903025240 | 82 | 337 | 0.0 | 0.0 | 0.00 | 0.00 | 0.00 | 74 | 1036.8 |
| 20260903024735 | 82 | 334 | 0.0 | 1.0 | 0.00 | 0.00 | 0.00 | 73 | 1036.8 |
| 20260903024234 | 82 | 353 | 0.0 | 0.0 | 0.00 | 0.00 | 0.00 | 73 | 1036.9 |
| 20260903023730 | 82 | 328 | 0.0 | 2.0 | 0.00 | 0.00 | 0.00 | 74 | 1037.0 |
| 20260903023225 | 83 | 337 | 0.0 | 2.0 | 0.00 | 0.00 | 0.00 | 72 | 1036.8 |
| 20260903022725 | 83 | 334 | 1.0 | 2.0 | 0.00 | 0.00 | 0.00 | 72 | 1037.0 |
| 20260903022224 | 83 | 349 | 2.0 | 2.0 | 0.00 | 0.00 | 0.00 | 72 | 1036.9 |
| 20260903021719 | 83 | 337 | 2.0 | 2.0 | 0.00 | 0.00 | 0.00 | 73 | 1037.1 |
| 20260903021214 | 83 | 352 | 0.0 | 2.0 | 0.00 | 0.00 | 0.00 | 73 | 1037.0 |
| 20260903020714 | 82 | 345 | 0.0 | 2.0 | 0.00 | 0.00 | 0.00 | 74 | 1036.9 |
| 20260903020209 | 83 | 336 | 2.0 | 2.0 | 0.00 | 0.00 | 0.00 | 74 | 1037.1 |
| 20260903015704 | 84 | 352 | 0.0 | 1.0 | 0.00 | 0.00 | 0.00 | 72 | 1036.9 |
| 20260903015159 | 83 | 353 | 1.0 | 2.0 | 0.00 | 0.00 | 0.00 | 74 | 1036.9 |
| 20260903014700 | 83 | 346 | 0.0 | 2.0 | 0.00 | 0.00 | 0.00 | 74 | 1036.9 |
| 20260903014154 | 83 | 341 | 2.0 | 3.0 | 0.00 | 0.00 | 0.00 | 73 | 1036.9 |
| 20260903013649 | 84 | 345 | 0.0 | 2.0 | 0.00 | 0.00 | 0.00 | 71 | 1036.7 |
| 20260903013148 | 84 | 352 | 0.0 | 2.0 | 0.00 | 0.00 | 0.00 | 70 | 1036.8 |
| 20260903012647 | 86 | 346 | 1.0 | 1.0 | 0.00 | 0.00 | 0.00 | 66 | 1036.8 |
| 20260903012147 | 85 | 350 | 2.0 | 2.0 | 0.00 | 0.00 | 0.00 | 66 | 1036.7 |
| 20260903011647 | 84 | 354 | 1.0 | 2.0 | 0.00 | 0.00 | 0.00 | 67 | 1036.4 |
| 20260903011140 | 84 | 352 | 0.0 | 2.0 | 0.00 | 0.00 | 0.00 | 70 | 1036.5 |
| 20260903010636 | 84 | 353 | 0.0 | 2.0 | 0.00 | 0.00 | 0.00 | 71 | 1036.5 |
| 20260903010135 | 85 | 346 | 1.0 | 2.0 | 0.00 | 0.00 | 0.00 | 69 | 1036.6 |
| 20260903005635 | 86 | 346 | 0.0 | 1.0 | 0.00 | 0.00 | 0.00 | 67 | 1036.5 |
| 20260903005130 | 86 | 0 | 0.0 | 0.0 | 0.00 | 0.00 | 0.00 | 65 | 1036.3 |
| 20260903004625 | 86 | 353 | 1.0 | 1.0 | 0.00 | 0.00 | 0.00 | 65 | 1036.3 |
| 20260903004120 | 85 | 346 | 1.0 | 2.0 | 0.00 | 0.00 | 0.00 | 67 | 1036.4 |
| 20260903003616 | 84 | 352 | 1.0 | 1.0 | 0.00 | 0.00 | 0.00 | 72 | 1036.4 |
| 20260903003111 | 85 | 0 | 2.0 | 2.0 | 0.00 | 0.00 | 0.00 | 72 | 1036.4 |
| 20260903002606 | 86 | 5 | 2.0 | 2.0 | 0.00 | 0.00 | 0.00 | 66 | 1036.1 |
| 20260903002106 | 87 | 352 | 0.0 | 0.0 | 0.00 | 0.00 | 0.00 | 62 | 1036.1 |
| 20260903001601 | 86 | 352 | 0.0 | 0.0 | 0.00 | 0.00 | 0.00 | 63 | 1035.9 |
| 20260903001055 | 85 | 352 | 1.0 | 1.0 | 0.00 | 0.00 | 0.00 | 67 | 1036.4 |
| 20260903000550 | 86 | 356 | 2.0 | 2.0 | 0.00 | 0.00 | 0.00 | 66 | 1035.8 |
| 20260903000043 | 87 | 0 | 1.0 | 1.0 | 0.00 | 0.00 | 0.00 | 66 | 1035.8 |
| 20260902235537 | 87 | 0 | 0.0 | 1.0 | 0.00 | 0.00 | 0.00 | 65 | 1036.0 |
| 20260902235032 | 87 | 0 | 0.0 | 0.0 | 0.00 | 0.00 | 0.00 | 66 | 1036.0 |
| 20260902234527 | 87 | 0 | 0.0 | 0.0 | 0.00 | 0.00 | 0.00 | 64 | 1036.3 |
| 20260902234025 | 87 | 0 | 0.0 | 0.0 | 0.00 | 0.00 | 0.00 | 64 | 1036.4 |
| 20260902233520 | 88 | 353 | 1.0 | 2.0 | 0.00 | 0.00 | 0.00 | 64 | 1036.1 |
| 20260902233015 | 88 | 346 | 1.0 | 1.0 | 0.00 | 0.00 | 0.00 | 65 | 1036.0 |
| 20260902232514 | 89 | 0 | 0.0 | 2.0 | 0.00 | 0.00 | 0.00 | 64 | 1036.0 |
| 20260902232008 | 90 | 0 | 0.0 | 1.0 | 0.00 | 0.00 | 0.00 | 62 | 1036.1 |
| 20260902231503 | 90 | 0 | 0.0 | 0.0 | 0.00 | 0.00 | 0.00 | 60 | 1036.3 |
| 20260902230958 | 91 | 353 | 0.0 | 2.0 | 0.00 | 0.00 | 0.00 | 58 | 1036.3 |
| 20260902230451 | 93 | 342 | 2.0 | 2.0 | 0.00 | 0.00 | 0.00 | 56 | 1036.3 |
| 20260902225945 | 95 | 172 | 0.0 | 0.0 | 0.00 | 0.00 | 0.00 | 50 | 1036.1 |
| 20260902225441 | 99 | 172 | 0.0 | 0.0 | 0.00 | 0.00 | 0.00 | 45 | 1036.4 |
| 20260902224940 | 101 | 172 | 0.0 | 1.0 | 0.00 | 0.00 | 0.00 | 43 | 1036.4 |
| 20260902224439 | 100 | 188 | 0.0 | 1.0 | 0.00 | 0.00 | 0.00 | 43 | 1036.4 |
| 20260902223936 | 98 | 187 | 0.0 | 1.0 | 0.00 | 0.00 | 0.00 | 46 | 1036.5 |
| 20260902223431 | 98 | 7 | 0.0 | 0.0 | 0.00 | 0.00 | 0.00 | 45 | 1036.6 |
| 20260902222930 | 98 | 7 | 0.0 | 0.0 | 0.00 | 0.00 | 0.00 | 45 | 1036.5 |
| 20260902222429 | 98 | 7 | 0.0 | 1.0 | 0.00 | 0.00 | 0.00 | 44 | 1036.6 |
| 20260902221929 | 98 | 23 | 0.0 | 1.0 | 0.00 | 0.00 | 0.00 | 46 | 1036.5 |
| 20260902221427 | 98 | 352 | 0.0 | 0.0 | 0.00 | 0.00 | 0.00 | 44 | 1036.6 |
| 20260902220924 | 98 | 29 | 0.0 | 2.0 | 0.00 | 0.00 | 0.00 | 46 | 1036.5 |
| 20260902220423 | 98 | 348 | 0.0 | 0.0 | 0.00 | 0.00 | 0.00 | 45 | 1036.6 |
| 20260902215918 | 98 | 337 | 1.0 | 1.0 | 0.00 | 0.00 | 0.00 | 45 | 1036.6 |
| 20260902215414 | 98 | 345 | 0.0 | 1.0 | 0.00 | 0.00 | 0.00 | 44 | 1036.6 |
| 20260902214910 | 100 | 172 | 0.0 | 1.0 | 0.00 | 0.00 | 0.00 | 43 | 1036.7 |
| 20260902214408 | 99 | 0 | 2.0 | 2.0 | 0.00 | 0.00 | 0.00 | 42 | 1036.8 |
| 20260902213903 | 99 | 7 | 1.0 | 2.0 | 0.00 | 0.00 | 0.00 | 42 | 1036.9 |
| 20260902213400 | 100 | 6 | 0.0 | 0.0 | 0.00 | 0.00 | 0.00 | 41 | 1036.6 |
| 20260902212858 | 101 | 240 | 0.0 | 2.0 | 0.00 | 0.00 | 0.00 | 42 | 1036.6 |
| 20260902212354 | 100 | 6 | 0.0 | 2.0 | 0.00 | 0.00 | 0.00 | 42 | 1036.7 |
| 20260902211851 | 99 | 0 | 0.0 | 2.0 | 0.00 | 0.00 | 0.00 | 45 | 1036.7 |
| 20260902211346 | 100 | 249 | 1.0 | 2.0 | 0.00 | 0.00 | 0.00 | 43 | 1036.6 |
| 20260902210841 | 99 | 220 | 2.0 | 2.0 | 0.00 | 0.00 | 0.00 | 46 | 1036.5 |
| 20260902210341 | 99 | 339 | 2.0 | 3.0 | 0.00 | 0.00 | 0.00 | 45 | 1036.7 |
| 20260902205839 | 101 | 111 | 0.0 | 2.0 | 0.00 | 0.00 | 0.00 | 45 | 1036.8 |
| 20260902205334 | 101 | 352 | 1.0 | 2.0 | 0.00 | 0.00 | 0.00 | 43 | 1036.7 |
| 20260902204830 | 99 | 143 | 4.0 | 4.0 | 0.00 | 0.00 | 0.00 | 44 | 1036.7 |
| 20260902204324 | 99 | 0 | 1.0 | 2.0 | 0.00 | 0.00 | 0.00 | 46 | 1036.8 |
| 20260902203820 | 99 | 0 | 1.0 | 2.0 | 0.00 | 0.00 | 0.00 | 44 | 1036.7 |
| 20260902203315 | 100 | 346 | 0.0 | 3.0 | 0.00 | 0.00 | 0.00 | 44 | 1036.6 |
| 20260902202814 | 100 | 6 | 0.0 | 3.0 | 0.00 | 0.00 | 0.00 | 44 | 1037.1 |
| 20260902202310 | 100 | 7 | 1.0 | 1.0 | 0.00 | 0.00 | 0.00 | 45 | 1036.7 |
| 20260902201807 | 100 | 41 | 0.0 | 3.0 | 0.00 | 0.00 | 0.00 | 44 | 1036.8 |
| 20260902201301 | 99 | 160 | 1.0 | 3.0 | 0.00 | 0.00 | 0.00 | 47 | 1037.0 |
| 20260902200756 | 99 | 166 | 1.0 | 2.0 | 0.00 | 0.00 | 0.00 | 46 | 1037.0 |
| 20260902200251 | 98 | 187 | 1.0 | 2.0 | 0.00 | 0.00 | 0.00 | 46 | 1036.9 |
| 20260902195747 | 96 | 184 | 2.0 | 4.0 | 0.00 | 0.00 | 0.00 | 47 | 1037.1 |
| 20260902195246 | 99 | 337 | 0.0 | 1.0 | 0.00 | 0.00 | 0.00 | 44 | 1037.1 |
| 20260902194740 | 98 | 169 | 0.0 | 3.0 | 0.00 | 0.00 | 0.00 | 46 | 1037.2 |
| 20260902194235 | 96 | 175 | 2.0 | 3.0 | 0.00 | 0.00 | 0.00 | 48 | 1037.2 |
| 20260902193731 | 96 | 172 | 1.0 | 4.0 | 0.00 | 0.00 | 0.00 | 49 | 1037.4 |
| 20260902193226 | 96 | 180 | 1.0 | 2.0 | 0.00 | 0.00 | 0.00 | 47 | 1037.4 |
| 20260902192724 | 94 | 160 | 3.0 | 4.0 | 0.00 | 0.00 | 0.00 | 49 | 1037.5 |
| 20260902192218 | 95 | 162 | 3.0 | 4.0 | 0.00 | 0.00 | 0.00 | 49 | 1037.3 |
| 20260902191713 | 95 | 192 | 2.0 | 5.0 | 0.00 | 0.00 | 0.00 | 50 | 1037.5 |
| 20260902191207 | 96 | 180 | 0.0 | 2.0 | 0.00 | 0.00 | 0.00 | 50 | 1037.6 |
| 20260902190703 | 94 | 157 | 3.0 | 4.0 | 0.00 | 0.00 | 0.00 | 50 | 1037.4 |
| 20260902190157 | 96 | 172 | 0.0 | 2.0 | 0.00 | 0.00 | 0.00 | 49 | 1037.7 |
| 20260902185653 | 95 | 151 | 0.0 | 3.0 | 0.00 | 0.00 | 0.00 | 49 | 1037.9 |
| 20260902185149 | 94 | 162 | 3.0 | 3.0 | 0.00 | 0.00 | 0.00 | 53 | 1037.9 |
| 20260902184644 | 93 | 165 | 2.0 | 3.0 | 0.00 | 0.00 | 0.00 | 55 | 1037.8 |
| 20260902184139 | 93 | 170 | 2.0 | 3.0 | 0.00 | 0.00 | 0.00 | 55 | 1038.1 |
| 20260902183635 | 93 | 159 | 2.0 | 2.0 | 0.00 | 0.00 | 0.00 | 53 | 1037.7 |
| 20260902183132 | 93 | 170 | 2.0 | 2.0 | 0.00 | 0.00 | 0.00 | 55 | 1038.0 |
| 20260902182627 | 91 | 180 | 0.0 | 3.0 | 0.00 | 0.00 | 0.00 | 59 | 1037.9 |
| 20260902182124 | 91 | 177 | 3.0 | 3.0 | 0.00 | 0.00 | 0.00 | 59 | 1038.0 |
| 20260902181620 | 92 | 172 | 0.0 | 1.0 | 0.00 | 0.00 | 0.00 | 61 | 1038.2 |
| 20260902181118 | 92 | 180 | 0.0 | 2.0 | 0.00 | 0.00 | 0.00 | 62 | 1038.1 |
| 20260902180613 | 92 | 131 | 2.0 | 3.0 | 0.00 | 0.00 | 0.00 | 62 | 1038.4 |
| 20260902180109 | 91 | 180 | 0.0 | 1.0 | 0.00 | 0.00 | 0.00 | 62 | 1038.2 |
| 20260902175608 | 90 | 157 | 3.0 | 3.0 | 0.00 | 0.00 | 0.00 | 64 | 1038.5 |
| 20260902175104 | 90 | 166 | 3.0 | 3.0 | 0.00 | 0.00 | 0.00 | 64 | 1038.7 |
| 20260902174601 | 90 | 180 | 0.0 | 2.0 | 0.00 | 0.00 | 0.00 | 63 | 1038.5 |
| 20260902174056 | 90 | 203 | 0.0 | 2.0 | 0.00 | 0.00 | 0.00 | 64 | 1038.4 |
| 20260902173555 | 90 | 172 | 1.0 | 2.0 | 0.00 | 0.00 | 0.00 | 66 | 1038.6 |
| 20260902173051 | 89 | 168 | 2.0 | 3.0 | 0.00 | 0.00 | 0.00 | 67 | 1038.9 |
| 20260902172545 | 89 | 0 | 0.0 | 1.0 | 0.00 | 0.00 | 0.00 | 66 | 1039.0 |
| 20260902172040 | 89 | 195 | 0.0 | 2.0 | 0.00 | 0.00 | 0.00 | 67 | 1039.1 |
| 20260902171535 | 89 | 90 | 0.0 | 2.0 | 0.00 | 0.00 | 0.00 | 65 | 1039.0 |
| 20260902171031 | 88 | 124 | 2.0 | 2.0 | 0.00 | 0.00 | 0.00 | 68 | 1039.0 |
| 20260902170526 | 87 | 180 | 0.0 | 2.0 | 0.00 | 0.00 | 0.00 | 69 | 1039.1 |
| 20260902170022 | 87 | 169 | 2.0 | 2.0 | 0.00 | 0.00 | 0.00 | 69 | 1039.2 |
| 20260902165521 | 87 | 188 | 1.0 | 2.0 | 0.00 | 0.00 | 0.00 | 69 | 1039.4 |
| 20260902165016 | 86 | 165 | 0.0 | 2.0 | 0.00 | 0.00 | 0.00 | 69 | 1039.3 |
| 20260902164511 | 86 | 188 | 0.0 | 1.0 | 0.00 | 0.00 | 0.00 | 71 | 1039.4 |
| 20260902164010 | 86 | 188 | 0.0 | 2.0 | 0.00 | 0.00 | 0.00 | 70 | 1039.5 |
| 20260902163506 | 86 | 180 | 1.0 | 2.0 | 0.00 | 0.00 | 0.00 | 71 | 1039.3 |
| 20260902163004 | 86 | 188 | 0.0 | 1.0 | 0.00 | 0.00 | 0.00 | 72 | 1039.6 |
| 20260902162458 | 86 | 188 | 0.0 | 1.0 | 0.00 | 0.00 | 0.00 | 71 | 1039.6 |
| 20260902161953 | 85 | 188 | 0.0 | 1.0 | 0.00 | 0.00 | 0.00 | 72 | 1039.4 |
| 20260902161448 | 85 | 172 | 0.0 | 1.0 | 0.00 | 0.00 | 0.00 | 73 | 1039.5 |
| 20260902160944 | 86 | 180 | 0.0 | 2.0 | 0.00 | 0.00 | 0.00 | 72 | 1039.5 |
| 20260902160439 | 86 | 90 | 0.0 | 0.0 | 0.00 | 0.00 | 0.00 | 72 | 1039.5 |
| 20260902155937 | 86 | 45 | 0.0 | 2.0 | 0.00 | 0.00 | 0.00 | 71 | 1039.7 |
| 20260902155433 | 85 | 345 | 0.0 | 2.0 | 0.00 | 0.00 | 0.00 | 74 | 1039.7 |
| 20260902154926 | 84 | 26 | 0.0 | 0.0 | 0.00 | 0.00 | 0.00 | 76 | 1039.7 |
| 20260902154422 | 83 | 21 | 0.0 | 2.0 | 0.00 | 0.00 | 0.00 | 75 | 1039.8 |
| 20260902153922 | 82 | 174 | 0.0 | 0.0 | 0.00 | 0.00 | 0.00 | 77 | 1039.9 |
| 20260902153420 | 83 | 180 | 0.0 | 2.0 | 0.00 | 0.00 | 0.00 | 77 | 1040.0 |
| 20260902152916 | 83 | 151 | 1.0 | 2.0 | 0.00 | 0.00 | 0.00 | 76 | 1039.9 |
| 20260902152412 | 82 | 157 | 1.0 | 2.0 | 0.00 | 0.00 | 0.00 | 77 | 1040.2 |
| 20260902151907 | 82 | 0 | 0.0 | 3.0 | 0.00 | 0.00 | 0.00 | 77 | 1040.0 |
| 20260902151403 | 81 | 180 | 0.0 | 0.0 | 0.00 | 0.00 | 0.00 | 79 | 1040.0 |
| 20260902150857 | 81 | 132 | 0.0 | 2.0 | 0.00 | 0.00 | 0.00 | 79 | 1039.7 |
| 20260902150354 | 81 | 180 | 0.0 | 0.0 | 0.00 | 0.00 | 0.00 | 80 | 1039.8 |
| 20260902145852 | 80 | 15 | 1.0 | 1.0 | 0.00 | 0.00 | 0.00 | 79 | 1039.8 |
| 20260902145348 | 80 | 165 | 0.0 | 2.0 | 0.00 | 0.00 | 0.00 | 80 | 1039.9 |
| 20260902144843 | 80 | 127 | 0.0 | 2.0 | 0.00 | 0.00 | 0.00 | 80 | 1039.8 |
| 20260902144339 | 79 | 160 | 0.0 | 1.0 | 0.00 | 0.00 | 0.00 | 80 | 1039.5 |
| 20260902143834 | 79 | 166 | 0.0 | 1.0 | 0.00 | 0.00 | 0.00 | 81 | 1039.8 |
| 20260902143334 | 78 | 165 | 0.0 | 0.0 | 0.00 | 0.00 | 0.00 | 80 | 1039.6 |
| 20260902142830 | 78 | 172 | 0.0 | 1.0 | 0.00 | 0.00 | 0.00 | 81 | 1039.7 |
| 20260902142326 | 78 | 151 | 0.0 | 0.0 | 0.00 | 0.00 | 0.00 | 82 | 1039.7 |
| 20260902141820 | 78 | 151 | 0.0 | 1.0 | 0.00 | 0.00 | 0.00 | 81 | 1039.7 |
| 20260902141316 | 78 | 160 | 0.0 | 1.0 | 0.00 | 0.00 | 0.00 | 82 | 1039.5 |
| 20260902140815 | 78 | 90 | 0.0 | 0.0 | 0.00 | 0.00 | 0.00 | 81 | 1039.4 |
| 20260902140311 | 77 | 172 | 0.0 | 0.0 | 0.00 | 0.00 | 0.00 | 83 | 1039.6 |
| 20260902135810 | 77 | 8 | 0.0 | 0.0 | 0.00 | 0.00 | 0.00 | 84 | 1039.5 |
| 20260902135307 | 77 | 8 | 0.0 | 0.0 | 0.00 | 0.00 | 0.00 | 83 | 1039.8 |
| 20260902134805 | 76 | 8 | 0.0 | 0.0 | 0.00 | 0.00 | 0.00 | 85 | 1039.7 |
| 20260902134301 | 76 | 8 | 0.0 | 0.0 | 0.00 | 0.00 | 0.00 | 85 | 1039.6 |
| 20260902133756 | 75 | 0 | 1.0 | 1.0 | 0.00 | 0.00 | 0.00 | 87 | 1039.6 |
| 20260902133255 | 75 | 180 | 0.0 | 0.0 | 0.00 | 0.00 | 0.00 | 87 | 1039.7 |
| 20260902132750 | 74 | 157 | 0.0 | 1.0 | 0.00 | 0.00 | 0.00 | 87 | 1039.5 |
| 20260902132246 | 74 | 172 | 0.0 | 0.0 | 0.00 | 0.00 | 0.00 | 88 | 1039.6 |
| 20260902131742 | 73 | 99 | 0.0 | 0.0 | 0.00 | 0.00 | 0.00 | 88 | 1039.5 |
| 20260902131238 | 73 | 187 | 0.0 | 1.0 | 0.00 | 0.00 | 0.00 | 88 | 1039.6 |
| 20260902130737 | 74 | 173 | 0.0 | 1.0 | 0.00 | 0.00 | 0.00 | 88 | 1039.5 |
| 20260902130233 | 74 | 348 | 0.0 | 2.0 | 0.00 | 0.00 | 0.00 | 87 | 1039.5 |
| 20260902125728 | 73 | 0 | 1.0 | 1.0 | 0.00 | 0.00 | 0.00 | 89 | 1039.4 |
| 20260902125224 | 73 | 0 | 0.0 | 1.0 | 0.00 | 0.00 | 0.00 | 90 | 1039.5 |
| 20260902124720 | 72 | 165 | 0.0 | 0.0 | 0.00 | 0.00 | 0.00 | 92 | 1039.3 |
| 20260902124216 | 72 | 165 | 0.0 | 1.0 | 0.00 | 0.00 | 0.00 | 92 | 1039.5 |
| 20260902123711 | 72 | 0 | 0.0 | 0.0 | 0.00 | 0.00 | 0.00 | 93 | 1039.3 |
| 20260902123207 | 71 | 90 | 0.0 | 0.0 | 0.00 | 0.00 | 0.00 | 93 | 1039.4 |
| 20260902122700 | 71 | 90 | 0.0 | 0.0 | 0.00 | 0.00 | 0.00 | 93 | 1039.3 |
| 20260902122156 | 70 | 90 | 0.0 | 0.0 | 0.00 | 0.00 | 0.00 | 93 | 1039.4 |
| 20260902121650 | 70 | 165 | 0.0 | 1.0 | 0.00 | 0.00 | 0.00 | 93 | 1039.3 |
| 20260902121150 | 70 | 165 | 1.0 | 1.0 | 0.00 | 0.00 | 0.00 | 93 | 1039.4 |
| 20260902120647 | 70 | 172 | 0.0 | 2.0 | 0.00 | 0.00 | 0.00 | 93 | 1039.2 |
| 20260902120143 | 71 | 172 | 0.0 | 1.0 | 0.00 | 0.00 | 0.00 | 93 | 1039.1 |
| 20260902115637 | 70 | 15 | 0.0 | 0.0 | 0.00 | 0.00 | 0.00 | 93 | 1038.9 |
| 20260902115134 | 71 | 14 | 1.0 | 1.0 | 0.00 | 0.00 | 0.00 | 92 | 1039.1 |
| 20260902114629 | 71 | 0 | 0.0 | 0.0 | 0.00 | 0.00 | 0.00 | 92 | 1038.9 |
| 20260902114130 | 71 | 0 | 0.0 | 0.0 | 0.00 | 0.00 | 0.00 | 91 | 1038.8 |
| 20260902113625 | 71 | 0 | 0.0 | 0.0 | 0.00 | 0.00 | 0.00 | 90 | 1039.0 |
| 20260902113120 | 71 | 0 | 0.0 | 0.0 | 0.00 | 0.00 | 0.00 | 89 | 1038.9 |
| 20260902112615 | 72 | 0 | 1.0 | 3.0 | 0.00 | 0.00 | 0.00 | 88 | 1038.8 |
| 20260902112112 | 71 | 337 | 0.0 | 3.0 | 0.00 | 0.00 | 0.00 | 88 | 1038.7 |
| 20260902111608 | 72 | 345 | 2.0 | 3.0 | 0.00 | 0.00 | 0.00 | 88 | 1038.4 |
| 20260902111103 | 72 | 349 | 0.0 | 2.0 | 0.00 | 0.00 | 0.00 | 87 | 1038.8 |
| 20260902110559 | 72 | 334 | 1.0 | 2.0 | 0.00 | 0.00 | 0.00 | 87 | 1038.6 |
| 20260902110054 | 72 | 345 | 1.0 | 2.0 | 0.00 | 0.00 | 0.00 | 88 | 1038.5 |
| 20260902105549 | 72 | 344 | 2.0 | 2.0 | 0.00 | 0.00 | 0.00 | 88 | 1038.5 |
| 20260902105049 | 73 | 340 | 0.0 | 2.0 | 0.00 | 0.00 | 0.00 | 88 | 1038.5 |
| 20260902104544 | 72 | 348 | 1.0 | 2.0 | 0.00 | 0.00 | 0.00 | 89 | 1038.2 |
| 20260902104039 | 71 | 0 | 0.0 | 1.0 | 0.00 | 0.00 | 0.00 | 91 | 1038.4 |
| 20260902103534 | 71 | 345 | 0.0 | 2.0 | 0.00 | 0.00 | 0.00 | 91 | 1038.1 |
| 20260902103030 | 71 | 172 | 0.0 | 0.0 | 0.00 | 0.00 | 0.00 | 91 | 1038.4 |
| 20260902102526 | 71 | 172 | 0.0 | 0.0 | 0.00 | 0.00 | 0.00 | 91 | 1038.1 |
| 20260902102023 | 72 | 172 | 0.0 | 0.0 | 0.00 | 0.00 | 0.00 | 90 | 1038.1 |
| 20260902101518 | 73 | 345 | 0.0 | 2.0 | 0.00 | 0.00 | 0.00 | 87 | 1038.0 |
| 20260902101016 | 73 | 334 | 1.0 | 2.0 | 0.00 | 0.00 | 0.00 | 87 | 1037.8 |
| 20260902100511 | 73 | 330 | 2.0 | 3.0 | 0.00 | 0.00 | 0.00 | 87 | 1037.8 |
| 20260902100006 | 72 | 341 | 2.0 | 3.0 | 0.00 | 0.00 | 0.00 | 87 | 1037.8 |
| 20260902095500 | 72 | 343 | 2.0 | 3.0 | 0.00 | 0.00 | 0.00 | 87 | 1038.0 |
| 20260902094959 | 73 | 341 | 2.0 | 3.0 | 0.00 | 0.00 | 0.00 | 87 | 1038.0 |
| 20260902094455 | 73 | 339 | 2.0 | 3.0 | 0.00 | 0.00 | 0.00 | 87 | 1037.7 |
| 20260902093950 | 73 | 334 | 3.0 | 3.0 | 0.00 | 0.00 | 0.00 | 87 | 1038.0 |
| 20260902093445 | 72 | 334 | 3.0 | 3.0 | 0.00 | 0.00 | 0.00 | 88 | 1037.9 |
| 20260902092944 | 73 | 334 | 2.0 | 3.0 | 0.00 | 0.00 | 0.00 | 87 | 1037.9 |
| 20260902092440 | 73 | 341 | 2.0 | 3.0 | 0.00 | 0.00 | 0.00 | 86 | 1037.7 |
| 20260902091939 | 73 | 0 | 0.0 | 1.0 | 0.00 | 0.00 | 0.00 | 85 | 1037.8 |
| 20260902091435 | 73 | 0 | 0.0 | 0.0 | 0.00 | 0.00 | 0.00 | 85 | 1037.7 |
| 20260902090931 | 73 | 279 | 0.0 | 0.0 | 0.00 | 0.00 | 0.00 | 85 | 1037.8 |
| 20260902090426 | 73 | 337 | 0.0 | 2.0 | 0.00 | 0.00 | 0.00 | 85 | 1037.7 |
| 20260902085924 | 74 | 331 | 2.0 | 3.0 | 0.00 | 0.00 | 0.00 | 85 | 1037.8 |
| 20260902085420 | 73 | 342 | 2.0 | 2.0 | 0.00 | 0.00 | 0.00 | 84 | 1037.6 |
| 20260902084915 | 74 | 338 | 2.0 | 3.0 | 0.00 | 0.00 | 0.00 | 84 | 1037.5 |
| 20260902084412 | 74 | 341 | 2.0 | 2.0 | 0.00 | 0.00 | 0.00 | 84 | 1037.7 |
| 20260902083906 | 74 | 348 | 1.0 | 2.0 | 0.00 | 0.00 | 0.00 | 84 | 1037.7 |
| 20260902083401 | 74 | 348 | 1.0 | 2.0 | 0.00 | 0.00 | 0.00 | 84 | 1037.6 |
| 20260902082856 | 74 | 279 | 0.0 | 0.0 | 0.00 | 0.00 | 0.00 | 84 | 1037.5 |
| 20260902082352 | 73 | 352 | 0.0 | 0.0 | 0.00 | 0.00 | 0.00 | 87 | 1037.6 |
| 20260902081848 | 74 | 337 | 1.0 | 2.0 | 0.00 | 0.00 | 0.00 | 87 | 1037.6 |
| 20260902081344 | 74 | 353 | 0.0 | 1.0 | 0.00 | 0.00 | 0.00 | 86 | 1037.6 |
| 20260902080839 | 74 | 340 | 0.0 | 2.0 | 0.00 | 0.00 | 0.00 | 86 | 1037.6 |
| 20260902080335 | 73 | 340 | 1.0 | 3.0 | 0.00 | 0.00 | 0.00 | 88 | 1037.5 |